User: anonymous   Login
Location: Unspecified
(0.0000°N, 0.0000°E)
Time: 18:39:28
(UTC+00:00)
Language:

Galileo 5 - Orbit

View from above orbital plane
View from above orbital plane
View from above satellite
View from above satellite

Ground track
Ground track

The orbit data is extracted from the following two-line orbital elements,

1 40128U 14050A   21025.47015192 -.00000095  00000-0  00000-0 0  9999
2 40128  50.5242 352.5207 1651990 106.6098 272.1496  1.85519309 41793
Epoch (UTC): 25 January 2021 11:17:01
Eccentricity: 0.1651990
inclination: 50.5242°
perigee height: 16977 km
apogee height: 26221 km
right ascension of ascending node: 352.5207°
argument of perigee: 106.6098°
revolutions per day: 1.85519309
mean anomaly at epoch: 272.1496°
orbit number at epoch: 4179

The dashed part of the orbit path shows where the satellite is in the earth's shadow,  

DLR